Year,Month,Day,Hour,Minute,Value (Times are PST for temperature in C)
2016,04,27,00,00,9.10
2016,04,27,00,01,9.10
2016,04,27,00,02,9.10
2016,04,27,00,03,9.10
2016,04,27,00,04,9.10
2016,04,27,00,05,9.10
2016,04,27,00,06,9.10
2016,04,27,00,07,9.10
2016,04,27,00,08,9.10
2016,04,27,00,09,9.10
2016,04,27,00,10,9.10
2016,04,27,00,11,9.10
2016,04,27,00,12,9.10
2016,04,27,00,13,9.10
2016,04,27,00,14,9.10
2016,04,27,00,15,9.10
2016,04,27,00,16,9.10
2016,04,27,00,17,9.10
2016,04,27,00,18,9.00
2016,04,27,00,19,9.00
2016,04,27,00,20,9.00
2016,04,27,00,21,9.00
2016,04,27,00,22,9.00
2016,04,27,00,23,8.90
2016,04,27,00,24,8.90
2016,04,27,00,25,8.90
2016,04,27,00,26,8.90
2016,04,27,00,27,8.90
2016,04,27,00,28,8.90
2016,04,27,00,29,8.90
2016,04,27,00,30,8.90
2016,04,27,00,31,8.90
2016,04,27,00,32,8.90
2016,04,27,00,33,8.90
2016,04,27,00,34,8.90
2016,04,27,00,35,8.90
2016,04,27,00,36,8.80
2016,04,27,00,37,8.80
2016,04,27,00,38,8.80
2016,04,27,00,39,8.80
2016,04,27,00,40,8.80
2016,04,27,00,41,8.80
2016,04,27,00,42,8.80
2016,04,27,00,43,8.80
2016,04,27,00,44,8.80
2016,04,27,00,45,8.80
2016,04,27,00,46,8.70
2016,04,27,00,47,8.70
2016,04,27,00,48,8.70
2016,04,27,00,49,8.70
2016,04,27,00,50,8.70
2016,04,27,00,51,8.70
2016,04,27,00,52,8.70
2016,04,27,00,53,8.70
2016,04,27,00,54,8.70
2016,04,27,00,55,8.60
2016,04,27,00,56,8.70
2016,04,27,00,57,8.60
2016,04,27,00,58,8.60
2016,04,27,00,59,8.60
2016,04,27,01,00,8.60
2016,04,27,01,01,8.60
2016,04,27,01,02,8.60
2016,04,27,01,03,8.60
2016,04,27,01,04,8.60
2016,04,27,01,05,8.60
2016,04,27,01,06,8.60
2016,04,27,01,07,8.60
2016,04,27,01,08,8.60
2016,04,27,01,09,8.60
2016,04,27,01,10,8.60
2016,04,27,01,11,8.60
2016,04,27,01,12,8.60
2016,04,27,01,13,8.60
2016,04,27,01,14,8.50
2016,04,27,01,15,8.50
2016,04,27,01,16,8.50
2016,04,27,01,17,8.50
2016,04,27,01,18,8.50
2016,04,27,01,19,8.50
2016,04,27,01,20,8.50
2016,04,27,01,21,8.50
2016,04,27,01,22,8.50
2016,04,27,01,23,8.40
2016,04,27,01,24,8.40
2016,04,27,01,25,8.40
2016,04,27,01,26,8.40
2016,04,27,01,27,8.40
2016,04,27,01,28,8.40
2016,04,27,01,29,8.40
2016,04,27,01,30,8.40
2016,04,27,01,31,8.40
2016,04,27,01,32,8.40
2016,04,27,01,33,8.40
2016,04,27,01,34,8.40
2016,04,27,01,35,8.40
2016,04,27,01,36,8.40
2016,04,27,01,37,8.40
2016,04,27,01,38,8.30
2016,04,27,01,39,8.30
2016,04,27,01,40,8.30
2016,04,27,01,41,8.30
2016,04,27,01,42,8.30
2016,04,27,01,43,8.30
2016,04,27,01,44,8.30
2016,04,27,01,45,8.30
2016,04,27,01,46,8.30
2016,04,27,01,47,8.30
2016,04,27,01,48,8.30
2016,04,27,01,49,8.30
2016,04,27,01,50,8.30
2016,04,27,01,51,8.30
2016,04,27,01,52,8.30
2016,04,27,01,53,8.20
2016,04,27,01,54,8.20
2016,04,27,01,55,8.20
2016,04,27,01,56,8.20
2016,04,27,01,57,8.20
2016,04,27,01,58,8.20
2016,04,27,01,59,8.20
2016,04,27,02,00,8.20
2016,04,27,02,01,8.20
2016,04,27,02,02,8.20
2016,04,27,02,03,8.20
2016,04,27,02,04,8.10
2016,04,27,02,05,8.10
2016,04,27,02,06,8.10
2016,04,27,02,07,8.10
2016,04,27,02,08,8.10
2016,04,27,02,09,8.10
2016,04,27,02,10,8.10
2016,04,27,02,11,8.10
2016,04,27,02,12,8.10
2016,04,27,02,13,8.10
2016,04,27,02,14,8.00
2016,04,27,02,15,8.10
2016,04,27,02,16,8.00
2016,04,27,02,17,8.00
2016,04,27,02,18,8.00
2016,04,27,02,19,8.00
2016,04,27,02,20,8.00
2016,04,27,02,21,8.00
2016,04,27,02,22,8.00
2016,04,27,02,23,8.10
2016,04,27,02,24,8.10
2016,04,27,02,25,8.10
2016,04,27,02,26,8.10
2016,04,27,02,27,8.10
2016,04,27,02,28,8.10
2016,04,27,02,29,8.00
2016,04,27,02,30,8.00
2016,04,27,02,31,8.00
2016,04,27,02,32,8.00
2016,04,27,02,33,8.00
2016,04,27,02,34,8.00
2016,04,27,02,35,8.00
2016,04,27,02,36,8.00
2016,04,27,02,37,7.90
2016,04,27,02,38,8.00
2016,04,27,02,39,8.00
2016,04,27,02,40,8.00
2016,04,27,02,41,8.00
2016,04,27,02,42,8.00
2016,04,27,02,43,8.00
2016,04,27,02,44,7.90
2016,04,27,02,45,7.90
2016,04,27,02,46,7.90
2016,04,27,02,47,7.90
2016,04,27,02,48,7.90
2016,04,27,02,49,7.90
2016,04,27,02,50,7.90
2016,04,27,02,51,7.90
2016,04,27,02,52,7.90
2016,04,27,02,53,7.90
2016,04,27,02,54,7.90
2016,04,27,02,55,7.90
2016,04,27,02,56,7.90
2016,04,27,02,57,7.90
2016,04,27,02,58,7.90
2016,04,27,02,59,7.80
2016,04,27,03,00,7.80
2016,04,27,03,01,7.80
2016,04,27,03,02,7.80
2016,04,27,03,03,7.80
2016,04,27,03,04,7.80
2016,04,27,03,05,7.80
2016,04,27,03,06,7.90
2016,04,27,03,07,7.90
2016,04,27,03,08,7.90
2016,04,27,03,09,7.90
2016,04,27,03,10,7.90
2016,04,27,03,11,7.90
2016,04,27,03,12,7.90
2016,04,27,03,13,7.90
2016,04,27,03,14,7.90
2016,04,27,03,15,7.90
2016,04,27,03,16,7.90
2016,04,27,03,17,7.80
2016,04,27,03,18,7.80
2016,04,27,03,19,7.80
2016,04,27,03,20,7.80
2016,04,27,03,21,7.80
2016,04,27,03,22,7.80
2016,04,27,03,23,7.80
2016,04,27,03,24,7.80
2016,04,27,03,25,7.80
2016,04,27,03,26,7.80
2016,04,27,03,27,7.80
2016,04,27,03,28,7.80
2016,04,27,03,29,7.70
2016,04,27,03,30,7.70
2016,04,27,03,31,7.70
2016,04,27,03,32,7.70
2016,04,27,03,33,7.70
2016,04,27,03,34,7.70
2016,04,27,03,35,7.70
2016,04,27,03,36,7.70
2016,04,27,03,37,7.70
2016,04,27,03,38,7.70
2016,04,27,03,39,7.70
2016,04,27,03,40,7.60
2016,04,27,03,41,7.60
2016,04,27,03,42,7.60
2016,04,27,03,43,7.60
2016,04,27,03,44,7.60
2016,04,27,03,45,7.60
2016,04,27,03,46,7.60
2016,04,27,03,47,7.50
2016,04,27,03,48,7.50
2016,04,27,03,49,7.50
2016,04,27,03,50,7.50
2016,04,27,03,51,7.40
2016,04,27,03,52,7.40
2016,04,27,03,53,7.40
2016,04,27,03,54,7.40
2016,04,27,03,55,7.40
2016,04,27,03,56,7.40
2016,04,27,03,57,7.30
2016,04,27,03,58,7.30
2016,04,27,03,59,7.30
2016,04,27,04,00,7.30
2016,04,27,04,01,7.30
2016,04,27,04,02,7.30
2016,04,27,04,03,7.30
2016,04,27,04,04,7.30
2016,04,27,04,05,7.30
2016,04,27,04,06,7.30
2016,04,27,04,07,7.30
2016,04,27,04,08,7.30
2016,04,27,04,09,7.30
2016,04,27,04,10,7.20
2016,04,27,04,11,7.20
2016,04,27,04,12,7.20
2016,04,27,04,13,7.20
2016,04,27,04,14,7.20
2016,04,27,04,15,7.20
2016,04,27,04,16,7.10
2016,04,27,04,17,7.10
2016,04,27,04,18,7.10
2016,04,27,04,19,7.10
2016,04,27,04,20,7.00
2016,04,27,04,21,7.00
2016,04,27,04,22,7.00
2016,04,27,04,23,7.00
2016,04,27,04,24,7.00
2016,04,27,04,25,6.90
2016,04,27,04,26,6.90
2016,04,27,04,27,6.90
2016,04,27,04,28,6.90
2016,04,27,04,29,6.90
2016,04,27,04,30,6.90
2016,04,27,04,31,6.90
2016,04,27,04,32,6.90
2016,04,27,04,33,6.80
2016,04,27,04,34,6.80
2016,04,27,04,35,6.80
2016,04,27,04,36,6.80
2016,04,27,04,37,6.80
2016,04,27,04,38,6.80
2016,04,27,04,39,6.80
2016,04,27,04,40,6.80
2016,04,27,04,41,6.70
2016,04,27,04,42,6.70
2016,04,27,04,43,6.70
2016,04,27,04,44,6.70
2016,04,27,04,45,6.70
2016,04,27,04,46,6.70
2016,04,27,04,47,6.70
2016,04,27,04,48,6.70
2016,04,27,04,49,6.70
2016,04,27,04,50,6.60
2016,04,27,04,51,6.60
2016,04,27,04,52,6.60
2016,04,27,04,53,6.60
2016,04,27,04,54,6.60
2016,04,27,04,55,6.60
2016,04,27,04,56,6.60
2016,04,27,04,57,6.60
2016,04,27,04,58,6.50
2016,04,27,04,59,6.50
2016,04,27,05,00,6.50
2016,04,27,05,01,6.50
2016,04,27,05,02,6.50
2016,04,27,05,03,6.40
2016,04,27,05,04,6.40
2016,04,27,05,05,6.40
2016,04,27,05,06,6.40
2016,04,27,05,07,6.40
2016,04,27,05,08,6.40
2016,04,27,05,09,6.40
2016,04,27,05,10,6.40
2016,04,27,05,11,6.40
2016,04,27,05,12,6.40
2016,04,27,05,13,6.40
2016,04,27,05,14,6.40
2016,04,27,05,15,6.40
2016,04,27,05,16,6.40
2016,04,27,05,17,6.40
2016,04,27,05,18,6.40
2016,04,27,05,19,6.40
2016,04,27,05,20,6.40
2016,04,27,05,21,6.40
2016,04,27,05,22,6.40
2016,04,27,05,23,6.40
2016,04,27,05,24,6.40
2016,04,27,05,25,6.40
2016,04,27,05,26,6.30
2016,04,27,05,27,6.30
2016,04,27,05,28,6.30
2016,04,27,05,29,6.30
2016,04,27,05,30,6.30
2016,04,27,05,31,6.30
2016,04,27,05,32,6.30
2016,04,27,05,33,6.30
2016,04,27,05,34,6.30
2016,04,27,05,35,6.30
2016,04,27,05,36,6.30
2016,04,27,05,37,6.30
2016,04,27,05,38,6.30
2016,04,27,05,39,6.30
2016,04,27,05,40,6.20
2016,04,27,05,41,6.20
2016,04,27,05,42,6.20
2016,04,27,05,43,6.20
2016,04,27,05,44,6.20
2016,04,27,05,45,6.20
2016,04,27,05,46,6.20
2016,04,27,05,47,6.20
2016,04,27,05,48,6.20
2016,04,27,05,49,6.20
2016,04,27,05,50,6.20
2016,04,27,05,51,6.10
2016,04,27,05,52,6.10
2016,04,27,05,53,6.10
2016,04,27,05,54,6.10
2016,04,27,05,55,6.10
2016,04,27,05,56,6.10
2016,04,27,05,57,6.10
2016,04,27,05,58,6.10
2016,04,27,05,59,6.10
2016,04,27,06,00,6.10
2016,04,27,06,01,6.10
2016,04,27,06,02,6.10
2016,04,27,06,03,6.10
2016,04,27,06,04,6.00
2016,04,27,06,05,6.00
2016,04,27,06,06,6.00
2016,04,27,06,07,6.00
2016,04,27,06,08,6.00
2016,04,27,06,09,6.00
2016,04,27,06,10,6.00
2016,04,27,06,11,6.00
2016,04,27,06,12,6.00
2016,04,27,06,13,6.00
2016,04,27,06,14,5.90
2016,04,27,06,15,5.90
2016,04,27,06,16,6.00
2016,04,27,06,17,5.90
2016,04,27,06,18,5.90
2016,04,27,06,19,5.90
2016,04,27,06,20,5.90
2016,04,27,06,21,5.90
2016,04,27,06,22,5.90
2016,04,27,06,23,5.90
2016,04,27,06,24,5.90
2016,04,27,06,25,5.90
2016,04,27,06,26,5.90
2016,04,27,06,27,5.90
2016,04,27,06,28,5.90
2016,04,27,06,29,5.90
2016,04,27,06,30,5.90
2016,04,27,06,31,5.90
2016,04,27,06,32,5.90
2016,04,27,06,33,5.90
2016,04,27,06,34,5.90
2016,04,27,06,35,5.90
2016,04,27,06,36,5.90
2016,04,27,06,37,5.90
2016,04,27,06,38,5.90
2016,04,27,06,39,5.90
2016,04,27,06,40,5.90
2016,04,27,06,41,5.90
2016,04,27,06,42,5.90
2016,04,27,06,43,5.90
2016,04,27,06,44,5.90
2016,04,27,06,45,5.90
2016,04,27,06,46,5.90
2016,04,27,06,47,5.90
2016,04,27,06,48,5.90
2016,04,27,06,49,5.90
2016,04,27,06,50,5.90
2016,04,27,06,51,5.90
2016,04,27,06,52,5.90
2016,04,27,06,53,6.00
2016,04,27,06,54,6.00
2016,04,27,06,55,6.00
2016,04,27,06,56,6.00
2016,04,27,06,57,6.00
2016,04,27,06,58,6.00
2016,04,27,06,59,6.00
2016,04,27,07,00,6.00
2016,04,27,07,01,6.10
2016,04,27,07,02,6.10
2016,04,27,07,03,6.10
2016,04,27,07,04,6.10
2016,04,27,07,05,6.10
2016,04,27,07,06,6.10
2016,04,27,07,07,6.10
2016,04,27,07,08,6.10
2016,04,27,07,09,6.10
2016,04,27,07,10,6.10
2016,04,27,07,11,6.20
2016,04,27,07,12,6.20
2016,04,27,07,13,6.20
2016,04,27,07,14,6.20
2016,04,27,07,15,6.20
2016,04,27,07,16,6.20
2016,04,27,07,17,6.20
2016,04,27,07,18,6.30
2016,04,27,07,19,6.30
2016,04,27,07,20,6.30
2016,04,27,07,21,6.30
2016,04,27,07,22,6.30
2016,04,27,07,23,6.40
2016,04,27,07,24,6.40
2016,04,27,07,25,6.40
2016,04,27,07,26,6.50
2016,04,27,07,27,6.50
2016,04,27,07,28,6.50
2016,04,27,07,29,6.60
2016,04,27,07,30,6.60
2016,04,27,07,31,6.60
2016,04,27,07,32,6.60
2016,04,27,07,33,6.70
2016,04,27,07,34,6.70
2016,04,27,07,35,6.70
2016,04,27,07,36,6.80
2016,04,27,07,37,6.80
2016,04,27,07,38,6.80
2016,04,27,07,39,6.80
2016,04,27,07,40,6.90
2016,04,27,07,41,6.90
2016,04,27,07,42,6.90
2016,04,27,07,43,7.00
2016,04,27,07,44,7.10
2016,04,27,07,45,7.10
2016,04,27,07,46,7.20
2016,04,27,07,47,7.30
2016,04,27,07,48,7.40
2016,04,27,07,49,7.40
2016,04,27,07,50,7.50
2016,04,27,07,51,7.60
2016,04,27,07,52,7.70
2016,04,27,07,53,7.80
2016,04,27,07,54,7.90
2016,04,27,07,55,8.00
2016,04,27,07,56,8.10
2016,04,27,07,57,8.20
2016,04,27,07,58,8.40
2016,04,27,07,59,8.50
2016,04,27,08,00,8.60
2016,04,27,08,01,8.70
2016,04,27,08,02,8.80
2016,04,27,08,03,8.90
2016,04,27,08,04,8.90
2016,04,27,08,05,9.10
2016,04,27,08,06,9.20
2016,04,27,08,07,9.20
2016,04,27,08,08,9.30
2016,04,27,08,09,9.40
2016,04,27,08,10,9.50
2016,04,27,08,11,9.60
2016,04,27,08,12,9.70
2016,04,27,08,13,9.80
2016,04,27,08,14,9.90
2016,04,27,08,15,10.10
2016,04,27,08,16,10.20
2016,04,27,08,17,10.40
2016,04,27,08,18,10.50
2016,04,27,08,19,10.60
2016,04,27,08,20,10.70
2016,04,27,08,21,10.80
2016,04,27,08,22,11.00
2016,04,27,08,23,11.10
2016,04,27,08,24,11.20
2016,04,27,08,25,11.30
2016,04,27,08,26,11.40
2016,04,27,08,27,11.50
2016,04,27,08,28,11.60
2016,04,27,08,29,11.60
2016,04,27,08,30,11.70
2016,04,27,08,31,11.70
2016,04,27,08,32,11.80
2016,04,27,08,33,11.80
2016,04,27,08,34,11.90
2016,04,27,08,35,11.90
2016,04,27,08,36,11.90
2016,04,27,08,37,11.90
2016,04,27,08,38,12.00
2016,04,27,08,39,12.00
2016,04,27,08,40,12.10
2016,04,27,08,41,12.10
2016,04,27,08,42,12.20
2016,04,27,08,43,12.20
2016,04,27,08,44,12.20
2016,04,27,08,45,12.20
2016,04,27,08,46,12.30
2016,04,27,08,47,12.20
2016,04,27,08,48,12.20
2016,04,27,08,49,12.30
2016,04,27,08,50,12.30
2016,04,27,08,51,12.20
2016,04,27,08,52,12.20
2016,04,27,08,53,12.20
2016,04,27,08,54,12.20
2016,04,27,08,55,12.20
2016,04,27,08,56,12.20
2016,04,27,08,57,12.10
2016,04,27,08,58,12.10
2016,04,27,08,59,12.10
2016,04,27,09,00,12.10
2016,04,27,09,01,12.20
2016,04,27,09,02,12.20
2016,04,27,09,03,12.20
2016,04,27,09,04,12.20
2016,04,27,09,05,12.20
2016,04,27,09,06,12.30
2016,04,27,09,07,12.30
2016,04,27,09,08,12.30
2016,04,27,09,09,12.30
2016,04,27,09,10,12.20
2016,04,27,09,11,12.20
2016,04,27,09,12,12.20
2016,04,27,09,13,12.20
2016,04,27,09,14,12.20
2016,04,27,09,15,12.20
2016,04,27,09,16,12.20
2016,04,27,09,17,12.20
2016,04,27,09,18,12.20
2016,04,27,09,19,12.20
2016,04,27,09,20,12.20
2016,04,27,09,21,12.20
2016,04,27,09,22,12.20
2016,04,27,09,23,12.30
2016,04,27,09,24,12.30
2016,04,27,09,25,12.30
2016,04,27,09,26,12.30
2016,04,27,09,27,12.30
2016,04,27,09,28,12.30
2016,04,27,09,29,12.30
2016,04,27,09,30,12.40
2016,04,27,09,31,12.40
2016,04,27,09,32,12.50
2016,04,27,09,33,12.50
2016,04,27,09,34,12.50
2016,04,27,09,35,12.50
2016,04,27,09,36,12.50
2016,04,27,09,37,12.50
2016,04,27,09,38,12.60
2016,04,27,09,39,12.60
2016,04,27,09,40,12.60
2016,04,27,09,41,12.60
2016,04,27,09,42,12.60
2016,04,27,09,43,12.70
2016,04,27,09,44,12.70
2016,04,27,09,45,12.70
2016,04,27,09,46,12.80
2016,04,27,09,47,12.80
2016,04,27,09,48,12.80
2016,04,27,09,49,12.90
2016,04,27,09,50,12.90
2016,04,27,09,51,12.90
2016,04,27,09,52,12.90
2016,04,27,09,53,12.90
2016,04,27,09,54,13.00
2016,04,27,09,55,12.90
2016,04,27,09,56,12.90
2016,04,27,09,57,13.00
2016,04,27,09,58,13.00
2016,04,27,09,59,13.00
2016,04,27,10,00,13.10
2016,04,27,10,01,13.10
2016,04,27,10,02,13.10
2016,04,27,10,03,13.20
2016,04,27,10,04,13.20
2016,04,27,10,05,13.20
2016,04,27,10,06,13.20
2016,04,27,10,07,13.30
2016,04,27,10,08,13.30
2016,04,27,10,09,13.30
2016,04,27,10,10,13.30
2016,04,27,10,11,13.30
2016,04,27,10,12,13.30
2016,04,27,10,13,13.40
2016,04,27,10,14,13.40
2016,04,27,10,15,13.40
2016,04,27,10,16,13.50
2016,04,27,10,17,13.50
2016,04,27,10,18,13.60
2016,04,27,10,19,13.60
2016,04,27,10,20,13.60
2016,04,27,10,21,13.60
2016,04,27,10,22,13.70
2016,04,27,10,23,13.70
2016,04,27,10,24,13.70
2016,04,27,10,25,13.70
2016,04,27,10,26,13.70
2016,04,27,10,27,13.70
2016,04,27,10,28,13.60
2016,04,27,10,29,13.60
2016,04,27,10,30,13.60
2016,04,27,10,31,13.60
2016,04,27,10,32,13.70
2016,04,27,10,33,13.70
2016,04,27,10,34,13.80
2016,04,27,10,35,13.80
2016,04,27,10,36,13.90
2016,04,27,10,37,14.00
2016,04,27,10,38,14.10
2016,04,27,10,39,14.10
2016,04,27,10,40,14.10
2016,04,27,10,41,14.20
2016,04,27,10,42,14.20
2016,04,27,10,43,14.20
2016,04,27,10,44,14.30
2016,04,27,10,45,14.40
2016,04,27,10,46,14.40
2016,04,27,10,47,14.40
2016,04,27,10,48,14.50
2016,04,27,10,49,14.50
2016,04,27,10,50,14.60
2016,04,27,10,51,14.70
2016,04,27,10,52,14.70
2016,04,27,10,53,14.80
2016,04,27,10,54,14.90
2016,04,27,10,55,14.90
2016,04,27,10,56,14.90
2016,04,27,10,57,15.00
2016,04,27,10,58,15.00
2016,04,27,10,59,15.10
2016,04,27,11,00,15.10
2016,04,27,11,01,15.20
2016,04,27,11,02,15.20
2016,04,27,11,03,15.20
2016,04,27,11,04,15.20
2016,04,27,11,05,15.20
2016,04,27,11,06,15.30
2016,04,27,11,07,15.30
2016,04,27,11,08,15.40
2016,04,27,11,09,15.30
2016,04,27,11,10,15.30
2016,04,27,11,11,15.20
2016,04,27,11,12,15.20
2016,04,27,11,13,15.20
2016,04,27,11,14,15.10
2016,04,27,11,15,15.10
2016,04,27,11,16,15.10
2016,04,27,11,17,15.10
2016,04,27,11,18,15.20
2016,04,27,11,19,15.30
2016,04,27,11,20,15.30
2016,04,27,11,21,15.30
2016,04,27,11,22,15.20
2016,04,27,11,23,15.20
2016,04,27,11,24,15.20
2016,04,27,11,25,15.30
2016,04,27,11,26,15.40
2016,04,27,11,27,15.40
2016,04,27,11,28,15.30
2016,04,27,11,29,15.10
2016,04,27,11,30,15.00
2016,04,27,11,31,14.90
2016,04,27,11,32,14.90
2016,04,27,11,33,14.80
2016,04,27,11,34,14.80
2016,04,27,11,35,14.90
2016,04,27,11,36,15.00
2016,04,27,11,37,15.10
2016,04,27,11,38,15.20
2016,04,27,11,39,15.20
2016,04,27,11,40,15.20
2016,04,27,11,41,15.10
2016,04,27,11,42,15.10
2016,04,27,11,43,15.10
2016,04,27,11,44,15.10
2016,04,27,11,45,15.10
2016,04,27,11,46,15.00
2016,04,27,11,47,14.90
2016,04,27,11,48,14.80
2016,04,27,11,49,14.80
2016,04,27,11,50,14.90
2016,04,27,11,51,15.00
2016,04,27,11,52,15.00
2016,04,27,11,53,15.10
2016,04,27,11,54,15.10
2016,04,27,11,55,15.20
2016,04,27,11,56,15.20
2016,04,27,11,57,15.30
2016,04,27,11,58,15.30
2016,04,27,11,59,15.20
2016,04,27,12,00,15.20
2016,04,27,12,01,15.30
2016,04,27,12,02,15.30
2016,04,27,12,03,15.30
2016,04,27,12,04,15.40
2016,04,27,12,05,15.40
2016,04,27,12,06,15.40
2016,04,27,12,07,15.40
2016,04,27,12,08,15.40
2016,04,27,12,09,15.30
2016,04,27,12,10,15.30
2016,04,27,12,11,15.20
2016,04,27,12,12,15.10
2016,04,27,12,13,15.10
2016,04,27,12,14,15.10
2016,04,27,12,15,15.10
2016,04,27,12,16,15.20
2016,04,27,12,17,15.20
2016,04,27,12,18,15.30
2016,04,27,12,19,15.40
2016,04,27,12,20,15.50
2016,04,27,12,21,15.60
2016,04,27,12,22,15.70
2016,04,27,12,23,15.70
2016,04,27,12,24,15.70
2016,04,27,12,25,15.70
2016,04,27,12,26,15.80
2016,04,27,12,27,15.80
2016,04,27,12,28,15.70
2016,04,27,12,29,15.70
2016,04,27,12,30,15.60
2016,04,27,12,31,15.60
2016,04,27,12,32,15.60
2016,04,27,12,33,15.60
2016,04,27,12,34,15.60
2016,04,27,12,35,15.50
2016,04,27,12,36,15.40
2016,04,27,12,37,15.30
2016,04,27,12,38,15.20
2016,04,27,12,39,15.10
2016,04,27,12,40,15.10
2016,04,27,12,41,15.20
2016,04,27,12,42,15.30
2016,04,27,12,43,15.40
2016,04,27,12,44,15.50
2016,04,27,12,45,15.60
2016,04,27,12,46,15.60
2016,04,27,12,47,15.60
2016,04,27,12,48,15.50
2016,04,27,12,49,15.50
2016,04,27,12,50,15.50
2016,04,27,12,51,15.40
2016,04,27,12,52,15.40
2016,04,27,12,53,15.30
2016,04,27,12,54,15.30
2016,04,27,12,55,15.30
2016,04,27,12,56,15.30
2016,04,27,12,57,15.30
2016,04,27,12,58,15.30
2016,04,27,12,59,15.30
2016,04,27,13,00,15.40
2016,04,27,13,01,15.40
2016,04,27,13,02,15.50
2016,04,27,13,03,15.60
2016,04,27,13,04,15.70
2016,04,27,13,05,15.80
2016,04,27,13,06,15.80
2016,04,27,13,07,15.70
2016,04,27,13,08,15.70
2016,04,27,13,09,15.70
2016,04,27,13,10,15.70
2016,04,27,13,11,15.70
2016,04,27,13,12,15.70
2016,04,27,13,13,15.70
2016,04,27,13,14,15.70
2016,04,27,13,15,15.80
2016,04,27,13,16,15.80
2016,04,27,13,17,15.80
2016,04,27,13,18,15.80
2016,04,27,13,19,15.80
2016,04,27,13,20,15.70
2016,04,27,13,21,15.70
2016,04,27,13,22,15.70
2016,04,27,13,23,15.80
2016,04,27,13,24,16.00
2016,04,27,13,25,16.20
2016,04,27,13,26,16.40
2016,04,27,13,27,16.50
2016,04,27,13,28,16.60
2016,04,27,13,29,16.70
2016,04,27,13,30,16.70
2016,04,27,13,31,16.80
2016,04,27,13,32,16.80
2016,04,27,13,33,16.90
2016,04,27,13,34,16.90
2016,04,27,13,35,16.90
2016,04,27,13,36,16.90
2016,04,27,13,37,16.90
2016,04,27,13,38,16.80
2016,04,27,13,39,16.80
2016,04,27,13,40,16.80
2016,04,27,13,41,16.90
2016,04,27,13,42,16.90
2016,04,27,13,43,16.90
2016,04,27,13,44,16.90
2016,04,27,13,45,16.80
2016,04,27,13,46,16.70
2016,04,27,13,47,16.60
2016,04,27,13,48,16.50
2016,04,27,13,49,16.50
2016,04,27,13,50,16.40
2016,04,27,13,51,16.20
2016,04,27,13,52,16.10
2016,04,27,13,53,16.10
2016,04,27,13,54,16.00
2016,04,27,13,55,15.90
2016,04,27,13,56,15.80
2016,04,27,13,57,15.80
2016,04,27,13,58,15.70
2016,04,27,13,59,15.70
2016,04,27,14,00,15.60
2016,04,27,14,01,15.60
2016,04,27,14,02,15.50
2016,04,27,14,03,15.50
2016,04,27,14,04,15.50
2016,04,27,14,05,15.50
2016,04,27,14,06,15.40
2016,04,27,14,07,15.40
2016,04,27,14,08,15.40
2016,04,27,14,09,15.30
2016,04,27,14,10,15.30
2016,04,27,14,11,15.20
2016,04,27,14,12,15.20
2016,04,27,14,13,15.20
2016,04,27,14,14,15.10
2016,04,27,14,15,15.10
2016,04,27,14,16,15.20
2016,04,27,14,17,15.20
2016,04,27,14,18,15.20
2016,04,27,14,19,15.30
2016,04,27,14,20,15.30
2016,04,27,14,21,15.40
2016,04,27,14,22,15.40
2016,04,27,14,23,15.40
2016,04,27,14,24,15.40
2016,04,27,14,25,15.40
2016,04,27,14,26,15.30
2016,04,27,14,27,15.30
2016,04,27,14,28,15.30
2016,04,27,14,29,15.30
2016,04,27,14,30,15.30
2016,04,27,14,31,15.30
2016,04,27,14,32,15.40
2016,04,27,14,33,15.40
2016,04,27,14,34,15.40
2016,04,27,14,35,15.40
2016,04,27,14,36,15.40
2016,04,27,14,37,15.40
2016,04,27,14,38,15.40
2016,04,27,14,39,15.30
2016,04,27,14,40,15.30
2016,04,27,14,41,15.30
2016,04,27,14,42,15.30
2016,04,27,14,43,15.20
2016,04,27,14,44,15.20
2016,04,27,14,45,15.20
2016,04,27,14,46,15.20
2016,04,27,14,47,15.20
2016,04,27,14,48,15.30
2016,04,27,14,49,15.30
2016,04,27,14,50,15.40
2016,04,27,14,51,15.40
2016,04,27,14,52,15.50
2016,04,27,14,53,15.50
2016,04,27,14,54,15.60
2016,04,27,14,55,15.70
2016,04,27,14,56,15.70
2016,04,27,14,57,15.80
2016,04,27,14,58,15.80
2016,04,27,14,59,15.80
2016,04,27,15,00,15.80
2016,04,27,15,01,15.70
2016,04,27,15,02,15.70
2016,04,27,15,03,15.70
2016,04,27,15,04,15.80
2016,04,27,15,05,15.70
2016,04,27,15,06,15.70
2016,04,27,15,07,15.80
2016,04,27,15,08,15.80
2016,04,27,15,09,15.90
2016,04,27,15,10,15.90
2016,04,27,15,11,15.90
2016,04,27,15,12,15.90
2016,04,27,15,13,15.90
2016,04,27,15,14,15.90
2016,04,27,15,15,15.80
2016,04,27,15,16,15.80
2016,04,27,15,17,15.80
2016,04,27,15,18,15.80
2016,04,27,15,19,15.80
2016,04,27,15,20,15.80
2016,04,27,15,21,15.80
2016,04,27,15,22,15.90
2016,04,27,15,23,15.90
2016,04,27,15,24,15.90
2016,04,27,15,25,15.90
2016,04,27,15,26,15.80
2016,04,27,15,27,15.70
2016,04,27,15,28,15.70
2016,04,27,15,29,15.70
2016,04,27,15,30,15.80
2016,04,27,15,31,15.80
2016,04,27,15,32,16.00
2016,04,27,15,33,16.10
2016,04,27,15,34,16.10
2016,04,27,15,35,16.10
2016,04,27,15,36,16.10
2016,04,27,15,37,16.00
2016,04,27,15,38,15.90
2016,04,27,15,39,16.00
2016,04,27,15,40,15.90
2016,04,27,15,41,15.80
2016,04,27,15,42,15.80
2016,04,27,15,43,15.70
2016,04,27,15,44,15.70
2016,04,27,15,45,15.70
2016,04,27,15,46,15.70
2016,04,27,15,47,15.80
2016,04,27,15,48,15.80
2016,04,27,15,49,15.80
2016,04,27,15,50,15.90
2016,04,27,15,51,15.90
2016,04,27,15,52,15.90
2016,04,27,15,53,16.00
2016,04,27,15,54,16.10
2016,04,27,15,55,16.10
2016,04,27,15,56,16.20
2016,04,27,15,57,16.20
2016,04,27,15,58,16.20
2016,04,27,15,59,16.30
2016,04,27,16,00,16.20
2016,04,27,16,01,16.20
2016,04,27,16,02,16.20
2016,04,27,16,03,16.20
2016,04,27,16,04,16.30
2016,04,27,16,05,16.30
2016,04,27,16,06,16.40
2016,04,27,16,07,16.40
2016,04,27,16,08,16.30
2016,04,27,16,09,16.30
2016,04,27,16,10,16.30
2016,04,27,16,11,16.30
2016,04,27,16,12,16.20
2016,04,27,16,13,16.10
2016,04,27,16,14,16.00
2016,04,27,16,15,16.00
2016,04,27,16,16,15.90
2016,04,27,16,17,15.80
2016,04,27,16,18,15.90
2016,04,27,16,19,15.80
2016,04,27,16,20,15.80
2016,04,27,16,21,15.70
2016,04,27,16,22,15.50
2016,04,27,16,23,15.50
2016,04,27,16,24,15.40
2016,04,27,16,25,15.30
2016,04,27,16,26,15.30
2016,04,27,16,27,15.20
2016,04,27,16,28,15.30
2016,04,27,16,29,15.30
2016,04,27,16,30,15.30
2016,04,27,16,31,15.30
2016,04,27,16,32,15.50
2016,04,27,16,33,15.60
2016,04,27,16,34,15.70
2016,04,27,16,35,15.80
2016,04,27,16,36,15.90
2016,04,27,16,37,16.00
2016,04,27,16,38,16.00
2016,04,27,16,39,15.90
2016,04,27,16,40,15.90
2016,04,27,16,41,15.90
2016,04,27,16,42,15.90
2016,04,27,16,43,15.90
2016,04,27,16,44,15.90
2016,04,27,16,45,15.90
2016,04,27,16,46,15.90
2016,04,27,16,47,15.90
2016,04,27,16,48,15.90
2016,04,27,16,49,15.90
2016,04,27,16,50,15.80
2016,04,27,16,51,15.70
2016,04,27,16,52,15.70
2016,04,27,16,53,15.60
2016,04,27,16,54,15.60
2016,04,27,16,55,15.60
2016,04,27,16,56,15.50
2016,04,27,16,57,15.50
2016,04,27,16,58,15.50
2016,04,27,16,59,15.40
2016,04,27,17,00,15.40
2016,04,27,17,01,15.40
2016,04,27,17,02,15.40
2016,04,27,17,03,15.40
2016,04,27,17,04,15.50
2016,04,27,17,05,15.60
2016,04,27,17,06,15.60
2016,04,27,17,07,15.70
2016,04,27,17,08,15.80
2016,04,27,17,09,15.80
2016,04,27,17,10,15.80
2016,04,27,17,11,15.80
2016,04,27,17,12,15.80
2016,04,27,17,13,15.80
2016,04,27,17,14,15.90
2016,04,27,17,15,15.80
2016,04,27,17,16,15.80
2016,04,27,17,17,15.80
2016,04,27,17,18,15.70
2016,04,27,17,19,15.70
2016,04,27,17,20,15.70
2016,04,27,17,21,15.80
2016,04,27,17,22,15.80
2016,04,27,17,23,15.80
2016,04,27,17,24,15.90
2016,04,27,17,25,15.90
2016,04,27,17,26,15.90
2016,04,27,17,27,15.90
2016,04,27,17,28,15.90
2016,04,27,17,29,15.90
2016,04,27,17,30,15.90
2016,04,27,17,31,15.80
2016,04,27,17,32,15.80
2016,04,27,17,33,15.80
2016,04,27,17,34,15.80
2016,04,27,17,35,15.70
2016,04,27,17,36,15.70
2016,04,27,17,37,15.60
2016,04,27,17,38,15.60
2016,04,27,17,39,15.60
2016,04,27,17,40,15.50